sat.trackr.live / text

‹ back to catalog

STARLINK-34326

NORAD 64221 · 2025-117U

PAYLOAD ACTIVE UNKNOWN

§ Identity

Operator
Country
US
Launch date
2025-05-31
Launch site
AFWTR
Launch vehicle
Mass (kg)
RCS (m²)

Purposes: comms

External: N2YO · Heavens-Above · Gunter

§ Orbital elements

Epoch: 2026-09-19T10:33:15.941376Z

Period
93.85 min
Inclination
53.1554°
Eccentricity
0.0001252
Mean motion
15.34411258 rev/d
Perigee alt
461.8 km
Apogee alt
463.5 km
Semi-major
6,840.8 km
B*
4.7651e-4
RAAN
216.5405°
Arg perigee
89.3207°
Mean anomaly
270.7939°
Rev number
7,426

§ Raw data

STARLINK-343261 64221U 25117U   26262.43976784  .00015763  00000+0  47651-3 0  99942 64221  53.1554 216.5405 0001252  89.3207 270.7939 15.34411258 74262

JSON: /api/v1/satellites/64221 · /tle

For live sub-satellite position, see the globe view (requires WebGL).

§ Visibility from observer

Set your observer location to see the next 7 days of passes ≥ 10°. The values pass through the URL so the page stays shareable.

No JS? Fill the form by hand. The geolocation button needs JavaScript.